Location: Brachstadt
(48.6975°N, 10.6755°E)
Time: 02:02:35
(UTC+00:00)

Cosmos 2098 Rocket - Pass Details

Date: 18 September 2020
Orbit: 366 x 1185 km, 82.9° (Epoch: 24 October)

Event Time Altitude Azimuth Distance (km) Brightness Sun altitude
Rises 20:51:07 0° 349° (N) 4,072 8.0 -31.4°
Reaches altitude 10° 20:53:56 10° 349° (NNW) 3,065 7.3 -31.8°
Enters shadow 21:00:53 76° 293° (WNW) 1,089 4.2 -32.5°
